AMOS-17

Last updated on Wed Sep 09 2026 00:03:02 GMT+0000 (Coordinated Universal Time)

1 44479U 19050A 26251.51962228 .00000088 00000+0 00000+0 0 9998 2 44479 0.0372 14.2769 0001495 164.3059 13.0674 1.00273888 26026
UTC large
Height (km)
Speed (km/s)
/
Latitude / Longitude
Inclination (degrees)
Orbital Period (minutes)
Azimuth
Elevation
Range (km)
Doppler Factor

Next 0 passes for location: London (51.5072 / 0.1276)

No passes found over London.
AMOS-17